• Join FlightAware (Why Join?)
  • Login
  • US Flag 
06:58AM EST


 

Airport Tracker/Info


-or-


 

Live Flight TrackerFlight Track Log ✈ ASQ4086 ✈ 21-Aug-2013 ✈ KHRL - KIAH

Flight Track Log - Related Links

Times and Time Zones

All times are in EDT time to prevent confusion due to time zone crossing. See the ASQ4086 flight status page for this flight to view local times or setup timezone preferences in your user account.

Time Position Orientation Groundspeed Altitude Reporting Facility
EDT Latitude Longitude Course Direction KTS MPH feet Rate Location/Type
05:54PM 26.2128 -97.6436 North 151 174 500  Level Houston Center
05:55PM 26.2297 -97.5875 71° East 200 230 3,100 2,479 Climbing Houston Center
05:56PM 26.2850 -97.5725 14° North 220 253 5,500 2,172 Climbing Houston Center
05:57PM 26.4819 -97.6170 10° North  Level FlightAware Approximate
05:57PM 26.3556 -97.5672 North 253 291 7,300  Level Houston Center
05:58PM 26.5485 -97.6094 North  Level FlightAware Approximate
05:58PM 26.4342 -97.5611 North 280 322 9,900  Level Houston Center
05:59PM 26.6151 -97.6020 North  Level FlightAware Approximate
05:59PM 26.5233 -97.5542 North 296 341 11,500  Level Houston Center
06:00PM 26.6272 -97.5444 North 344 396 12,700 1,210 Climbing Houston Center
06:01PM 26.7297 -97.5350 North 365 420 14,000 1,355 Climbing Houston Center
06:02PM 26.8272 -97.4906 22° Northeast 377 434 15,500 1,548 Climbing Houston Center
06:03PM 26.9317 -97.4417 23° Northeast 377 434 17,200 1,597 Climbing Houston Center
06:04PM 27.0283 -97.3947 23° Northeast 379 436 18,800 1,548 Climbing Houston Center
06:05PM 27.1283 -97.3481 23° Northeast 377 434 20,400 1,500 Climbing Houston Center
06:06PM 27.2239 -97.3014 23° Northeast 375 432 21,900 1,500 Climbing Houston Center
06:07PM 27.3189 -97.2564 23° Northeast 372 428 23,500 1,500 Climbing Houston Center
06:08PM 27.4136 -97.2111 23° Northeast 371 427 25,000 1,452 Climbing Houston Center
06:09PM 27.5064 -97.1661 23° Northeast 367 422 26,500 968 Climbing Houston Center
06:10PM 27.6078 -97.1167 23° Northeast 368 423 27,000 242 Climbing Houston Center
06:11PM 27.7150 -97.0667 22° Northeast 402 463 27,000  Level Houston Center
06:12PM 27.8281 -97.0111 23° Northeast 432 497 27,000  Level Houston Center
06:13PM 27.9700 -96.9436 23° Northeast 453 521 27,000  Level Houston Center
06:14PM 28.0903 -96.8903 21° North 461 531 27,000  Level Houston Center
06:15PM 28.2167 -96.8589 12° North 463 533 27,000  Level Houston Center
06:17PM 28.3227 -96.7984 27° Northeast  Level FlightAware Approximate
06:17PM 28.4697 -96.7947 27° Northeast 466 536 27,000  Level Houston Center
06:18PM 28.6219 -96.7547 13° North 467 537 27,000 -48 Level Houston Center
06:19PM 28.7497 -96.7242 12° North 468 539 26,900 -290 Descending Houston Center
06:20PM 28.8728 -96.6772 18° North 472 543 26,400 -1,403 Descending Houston Center
06:21PM 28.9867 -96.5956 32° Northeast 485 558 24,000 -2,565 Descending Houston Center
06:22PM 29.0942 -96.5156 33° Northeast 471 542 21,100 -3,048 Descending Houston Center
06:24PM 29.2089 -96.4267 34° Northeast 417 480 17,700 -2,806 Descending Houston Center
06:25PM 29.3017 -96.3567 33° Northeast 403 464 15,300 -2,177 Descending Houston Center
06:26PM 29.3911 -96.2875 34° Northeast 394 453 13,200 -2,081 Descending Houston Center
06:27PM 29.4797 -96.2189 34° Northeast 389 448 11,000 -1,561 Descending Houston Center
06:28PM 29.5531 -96.1483 40° Northeast 350 403 10,000 -488 Descending Houston Center
06:29PM 29.6003 -96.0594 59° Northeast 326 375 10,000  Level Houston Center
06:30PM 29.6514 -95.9617 59° Northeast 331 381 10,000 -145 Level Houston Center
06:31PM 29.7303 -95.9122 29° Northeast 319 367 9,700 -629 Descending Houston Center
06:32PM 29.8042 -95.8714 26° Northeast 299 344 8,700 -1,161 Descending Houston Center
06:33PM 29.8647 -95.7889 50° Northeast 282 325 7,300 -1,304 Descending Houston Center
06:33PM 29.8942 -95.7589 41° Northeast 259 298 6,700 -1,065 Descending Houston Center
06:34PM 29.9200 -95.7331 41° Northeast 264 304 6,200 -638 Descending Houston Center
06:35PM 29.9686 -95.6836 41° Northeast 238 274 5,700 -943 Descending Houston Center
06:36PM 29.9925 -95.5908 73° East 208 239 4,000 -1,161 Descending Houston Center
06:37PM 29.9936 -95.5494 88° East 213 245 3,300 -944 Descending Houston Center
06:38PM 29.9936 -95.4886 90° East 202 232 2,300 -919 Descending Houston Center
06:39PM 29.9936 -95.4278 90° East 177 204 1,400 -823 Descending Houston Center
06:40PM 29.9936 -95.3825 90° East 156 180 600 -435 Descending Houston Center
06:41PM 29.9931 -95.3375 91° East 153 176 500 -97 Descending Houston Center